This is the latest recevied weather packets stored in our database for station/object G4MDP-13. If no packets are shown the sender has not sent any weather packets the latest 10 day(s).
| Time | Temp. | Humidity | Pressure | Rain* | Wind** | Luminosity | Snow |
|---|---|---|---|---|---|---|---|
| 1777658685 | 17.78° C | 67% | 1013.6 hPa | 0 mm | - | - | - |
| 1777658626 | 17.78° C | 67% | 1013.6 hPa | 0 mm | - | - | - |
| 1777657726 | 18.33° C | 66% | 1013.8 hPa | 0 mm | - | - | - |
| 1777656885 | 19.44° C | 64% | 1019.6 hPa | 0 mm | - | - | - |
| 1777656826 | 19.44° C | 64% | 1019.8 hPa | 0 mm | - | - | - |
| 1777655925 | 19.44° C | 63% | 1013.3 hPa | 0 mm | - | - | - |
| 1777655085 | 20° C | 61% | 1013.6 hPa | 0 mm | - | - | - |
| 1777655026 | 20° C | 62% | 1013.6 hPa | 0 mm | - | - | - |
| 1777654125 | 20.56° C | 60% | 1013.6 hPa | 0 mm | - | - | - |
| 1777653285 | 20.56° C | 60% | 1013.6 hPa | 0 mm | - | - | - |
| 1777653226 | 20.56° C | 60% | 1013.7 hPa | 0 mm | - | - | - |
| 1777652325 | 20° C | 61% | 1013.7 hPa | 0 mm | - | - | - |
| 1777651485 | 20.56° C | 59% | 1013.8 hPa | 0 mm | - | - | - |
| 1777651426 | 20.56° C | 60% | 1013.6 hPa | 0 mm | - | - | - |
| 1777650525 | 20.56° C | 60% | 1013.8 hPa | 0 mm | - | - | - |
| 1777649685 | 20.56° C | 60% | 1013.7 hPa | 0 mm | - | - | - |
| 1777649626 | 20° C | 61% | 1014 hPa | 0 mm | - | - | - |
| 1777648725 | 20° C | 61% | 1014.2 hPa | 0 mm | - | - | - |
| 1777647885 | 20° C | 60% | 1014.2 hPa | 0 mm | - | - | - |
| 1777647826 | 20° C | 60% | 1014 hPa | 0 mm | - | - | - |
| 1777646925 | 19.44° C | 62% | 1014.4 hPa | 0 mm | - | - | - |
| 1777646085 | 18.89° C | 62% | 1014.5 hPa | 0 mm | - | - | - |
| 1777646026 | 18.89° C | 62% | 1014.7 hPa | 0 mm | - | - | - |
| 1777645126 | 18.33° C | 64% | 1014.5 hPa | 0 mm | - | - | - |
| 1777644285 | 18.33° C | 65% | 1014.5 hPa | 0 mm | - | - | - |
* Rain latest hour (hover to see other rain measurements)
** Current wind speed in m/s (hover to see current wind gust speed)